Volver al catálogo

STARLINK-35559

ActivoComunicacionesVLEO
NORAD 66095·PAYLOAD·🇺🇸 United States

Lanzado Oct 19, 2025 desde Vandenberg Space Force Base

Loading…

Próximos Pases (próximas 24 horas)

TLE

ActualizadoSource: CelesTrak SupGP

Época: Sep 15, 2026, 03:13 UTC

1 66095C 25236K   26258.13451389  .00028615  00000+0  84503-3 0  2583
2 66095  53.1588 302.9244 0001172  86.2284 268.2717 15.34391211    17

Sigue STARLINK-35559 en tiempo real con AllMySat

Download on the App Store